View from above orbital plane
|
View from above satellite
|
Ground track
|
The orbit data is extracted from the following two-line orbital elements,
1 40069U 14037A 21017.15445355 -.00000023 00000-0 88756-5 0 9992
2 40069 98.4787 52.3379 0006288 31.9265 328.2292 14.20679991338553
Epoch (UTC): | 17 January 2021 03:42:24 |
Eccentricity: | 0.0006288 |
inclination: | 98.4787° |
perigee height: | 818 km |
apogee height: | 827 km |
right ascension of ascending node: | 52.3379° |
argument of perigee: | 31.9265° |
revolutions per day: | 14.20679991 |
mean anomaly at epoch: | 328.2292° |
orbit number at epoch: | 33855 |
The dashed part of the orbit path shows where the satellite is in the earth's shadow,
|
|